Evansville, IN

6:26 PM CDT on September 21, 2017 (GMT -0500)
Evansville Regional

Weather History for KEVV - September, 2011

Change the Weather History Date:

Monday, September 19, 2011

  Actual Average Record
Temperature  
Mean Temperature 71 °F 68 °F  
Max Temperature 76 °F 80 °F 97 °F (1954)
Min Temperature 66 °F 55 °F 42 °F (1901)
Degree Days  
Heating Degree Days 0 2  
Month to date heating degree days 16 11  
Since 1 July heating degree days 16 12  
Cooling Degree Days 6 4  
Month to date cooling degree days 110 132  
Year to date cooling degree days 1615 1331  
Growing Degree Days 20 (Base 50)    
Moisture  
Dew Point 65 °F    
Average Humidity 81    
Maximum Humidity 93    
Minimum Humidity 69    
Precipitation  
Precipitation 0.34 in 0.10 in 1.60 in (1970)
Month to date precipitation 3.43 1.92  
Year to date precipitation 48.41 32.84  
Snow  
Snow 0.00 in 0.00 in 0.00 in ()
Month to date snowfall 0.0 0.0  
Since 1 July snowfall 0.0 0.0  
Since 1 September snowfall 0.0 0.0  
Snow Depth 0.00 in    
Sea Level Pressure  
Sea Level Pressure 30.00 in    
Wind  
Wind Speed 4 mph (SSW)    
Max Wind Speed 16 mph    
Max Gust Speed 22 mph    
Visibility 7 miles    
Events Rain    
T = Trace of Precipitation, MM = Missing Value Source: NWS Daily Summary

Daily Weather History Graph

Daily Weather History Graph

Search for Another Location

Airport or City:

Trip Planner

Search our weather history database for the weather conditions in past years. The results will help you decide how hot, cold, wet, or windy it might be!

Date:

Astronomy

Sep. 19, 2011 Rise Set
Actual Time 6:35 AM CDT 6:52 PM CDT
Civil Twilight 6:08 AM CDT 7:18 PM CDT
Nautical Twilight 5:37 AM CDT 7:49 PM CDT
Astronomical Twilight 5:06 AM CDT 8:20 PM CDT
Moon 11:05 PM CDT (9/19) 1:18 PM CDT (9/19)
Length of Visible Light 13h 09m
Length of Day
12h 17m
Waning Gibbous, 58% of the Moon is Illuminated
Sep 19
Waning Gibbous
Sep 20
Last Quarter
Sep 27
New
Oct 3
First Quarter
Oct 11
Full

Hourly Weather History & Observations

Time (CDT) Temp. Dew Point Humidity Pressure Visibility Wind Dir Wind Speed Gust Speed Precip Events Conditions
12:04 AM 68.0 °F 66.2 °F 94% 30.02 in 6.0 mi SE 3.5 mph - N/A   Partly Cloudy
12:54 AM 66.9 °F 64.9 °F 93% 30.01 in 4.0 mi Calm Calm - N/A   Mostly Cloudy
1:17 AM 66.2 °F 64.4 °F 94% 30.01 in 1.8 mi Calm Calm - N/A   Scattered Clouds
1:26 AM 66.2 °F 64.4 °F 94% 30.00 in 3.0 mi East 4.6 mph - N/A   Partly Cloudy
1:54 AM 66.9 °F 64.9 °F 93% 30.00 in 3.0 mi Calm Calm - N/A   Clear
2:03 AM 66.2 °F 64.4 °F 94% 30.01 in 1.8 mi Calm Calm - N/A   Clear
2:13 AM 66.2 °F 64.4 °F 94% 30.00 in 1.2 mi SE 3.5 mph - N/A   Scattered Clouds
2:18 AM 66.2 °F 64.4 °F 94% 30.00 in 2.0 mi SE 3.5 mph - N/A   Partly Cloudy
2:29 AM 66.2 °F 64.4 °F 94% 30.00 in 3.0 mi SSE 4.6 mph - N/A   Partly Cloudy
2:54 AM 66.9 °F 64.9 °F 93% 29.99 in 5.0 mi Calm Calm - N/A   Clear
3:54 AM 68.0 °F 64.9 °F 90% 29.98 in 5.0 mi SE 3.5 mph - N/A   Overcast
4:54 AM 66.9 °F 64.0 °F 90% 29.99 in 5.0 mi Calm Calm - N/A   Clear
5:49 AM 68.0 °F 64.4 °F 88% 30.00 in 7.0 mi South 5.8 mph - N/A   Mostly Cloudy
5:54 AM 66.9 °F 64.0 °F 90% 29.99 in 7.0 mi South 6.9 mph - N/A   Mostly Cloudy
6:03 AM 68.0 °F 64.4 °F 88% 30.01 in 8.0 mi South 6.9 mph - N/A   Mostly Cloudy
6:54 AM 66.9 °F 64.0 °F 90% 30.00 in 8.0 mi South 8.1 mph - 0.00 in   Mostly Cloudy
7:18 AM 66.2 °F 64.4 °F 94% 30.01 in 7.0 mi SSW 10.4 mph - 0.00 in Rain Light Rain
7:38 AM 66.2 °F 64.4 °F 94% 30.02 in 7.0 mi SSW 8.1 mph - 0.01 in Rain Light Rain
7:54 AM 66.9 °F 64.0 °F 90% 30.01 in 8.0 mi SSW 10.4 mph - 0.01 in Rain Light Rain
8:02 AM 66.2 °F 64.4 °F 94% 30.02 in 7.0 mi SSW 10.4 mph - 0.01 in Rain Light Rain
8:10 AM 66.2 °F 64.4 °F 94% 30.02 in 6.0 mi SW 11.5 mph - 0.01 in Rain Light Rain
8:19 AM 66.2 °F 64.4 °F 94% 30.02 in 7.0 mi SW 11.5 mph - 0.01 in Rain Light Rain
8:54 AM 66.9 °F 64.0 °F 90% 30.01 in 5.0 mi South 6.9 mph - 0.04 in Rain Light Rain
9:06 AM 66.2 °F 64.4 °F 94% 30.02 in 8.0 mi South 6.9 mph - 0.01 in Rain Light Rain
9:15 AM 66.2 °F 64.4 °F 94% 30.02 in 8.0 mi South 9.2 mph - 0.02 in Rain Light Rain
9:54 AM 66.9 °F 64.0 °F 90% 30.02 in 5.0 mi SSW 5.8 mph - 0.04 in Rain Light Rain
10:01 AM 68.0 °F 64.4 °F 88% 30.03 in 9.0 mi South 4.6 mph - 0.00 in Rain Light Rain
10:15 AM 68.0 °F 64.4 °F 88% 30.03 in 10.0 mi South 5.8 mph - N/A Rain Light Rain
10:54 AM 68.0 °F 64.0 °F 87% 30.02 in 10.0 mi SSW 8.1 mph - 0.00 in   Overcast
11:54 AM 69.1 °F 64.9 °F 87% 30.01 in 9.0 mi South 11.5 mph - N/A   Overcast
12:54 PM 71.1 °F 64.9 °F 81% 29.99 in 10.0 mi South 6.9 mph - N/A   Overcast
1:27 PM 71.6 °F 64.4 °F 78% 30.00 in 10.0 mi South 8.1 mph - N/A   Overcast
1:54 PM 71.1 °F 64.0 °F 78% 29.99 in 10.0 mi South 8.1 mph - N/A   Overcast
2:24 PM 75.2 °F 64.4 °F 69% 29.98 in 10.0 mi South 8.1 mph - 0.00 in   Overcast
2:54 PM 75.0 °F 64.0 °F 69% 29.96 in 10.0 mi SSW 8.1 mph - 0.00 in   Mostly Cloudy
3:33 PM 71.6 °F 64.4 °F 78% 29.96 in 10.0 mi South 9.2 mph - N/A   Overcast
3:54 PM 72.0 °F 64.9 °F 78% 29.95 in 10.0 mi SSW 9.2 mph - N/A   Overcast
4:08 PM 69.8 °F 64.4 °F 83% 29.96 in 1.5 mi West 16.1 mph 21.9 mph 0.00 in Rain Heavy Rain
4:11 PM 69.8 °F 64.4 °F 83% 29.97 in 0.8 mi West 10.4 mph 21.9 mph 0.15 in Rain Heavy Rain
4:18 PM 69.8 °F 64.4 °F 83% 29.97 in 1.2 mi West 6.9 mph - 0.24 in Rain Heavy Rain
4:20 PM 69.8 °F 64.4 °F 83% 29.97 in 5.0 mi WSW 8.1 mph - 0.24 in Rain Rain
4:54 PM 71.1 °F 66.0 °F 84% 29.97 in 10.0 mi Calm Calm - 0.25 in   Overcast
5:04 PM 71.6 °F 64.4 °F 78% 29.98 in 10.0 mi WSW 3.5 mph - N/A   Overcast
5:12 PM 71.6 °F 66.2 °F 83% 29.98 in 10.0 mi WSW 3.5 mph - N/A   Overcast
5:46 PM 69.8 °F 66.2 °F 88% 29.98 in 10.0 mi North 5.8 mph - 0.00 in Rain Light Rain
5:51 PM 69.8 °F 66.2 °F 88% 29.98 in 10.0 mi NNW 5.8 mph - 0.00 in Rain Light Rain
5:54 PM 70.0 °F 66.0 °F 87% 29.97 in 10.0 mi NNW 4.6 mph - 0.00 in   Overcast
6:06 PM 69.8 °F 66.2 °F 88% 29.98 in 10.0 mi NNW 3.5 mph - N/A   Mostly Cloudy
6:54 PM 69.1 °F 64.9 °F 87% 29.99 in 10.0 mi Calm Calm - N/A   Scattered Clouds
7:44 PM 68.0 °F 64.4 °F 88% 30.01 in 10.0 mi Calm Calm - N/A   Overcast
7:54 PM 68.0 °F 64.9 °F 90% 30.00 in 10.0 mi Calm Calm - N/A   Overcast
8:44 PM 68.0 °F 64.4 °F 88% 30.03 in 8.0 mi Calm Calm - N/A   Overcast
8:54 PM 68.0 °F 64.9 °F 90% 30.02 in 10.0 mi Calm Calm - N/A   Overcast
9:42 PM 68.0 °F 64.4 °F 88% 30.04 in 7.0 mi Calm Calm - N/A   Overcast
9:54 PM 68.0 °F 64.9 °F 90% 30.03 in 8.0 mi Calm Calm - N/A   Overcast
10:54 PM 68.0 °F 64.9 °F 90% 30.04 in 10.0 mi Calm Calm - N/A   Overcast
11:37 PM 66.2 °F 64.4 °F 94% 30.04 in 7.0 mi Calm Calm - N/A   Overcast
11:54 PM 66.9 °F 64.0 °F 90% 30.04 in 8.0 mi Calm Calm - N/A   Overcast